This is the latest recevied weather packets stored in our database for station/object VA3BOO. If no packets are shown the sender has not sent any weather packets the latest 10 day(s).
| Time | Temp. | Humidity | Pressure | Rain* | Wind** | Luminosity | Snow |
|---|---|---|---|---|---|---|---|
| 1777995605 | 16.67° C | 68% | 1001.6 hPa | 0 mm | - | 46 W/m² | - |
| 1777995305 | 17.22° C | 68% | 1001.6 hPa | 0 mm | - | 51 W/m² | - |
| 1777995005 | 17.22° C | 67% | 1001.8 hPa | 0 mm | - | 46 W/m² | - |
| 1777994704 | 17.78° C | 67% | 1001.7 hPa | 0 mm | - | 54 W/m² | - |
| 1777994404 | 17.78° C | 66% | 1001.7 hPa | 0 mm | - | 74 W/m² | - |
| 1777994105 | 17.78° C | 65% | 1001.8 hPa | 0 mm | - | 132 W/m² | - |
| 1777993804 | 18.33° C | 64% | 1001.7 hPa | 0 mm | - | 93 W/m² | - |
| 1777993504 | 18.33° C | 64% | 1001.5 hPa | 0 mm | - | 184 W/m² | - |
| 1777993204 | 18.89° C | 64% | 1001.5 hPa | 0 mm | - | 182 W/m² | - |
| 1777992905 | 18.89° C | 64% | 1001.4 hPa | 0 mm | - | 248 W/m² | - |
| 1777992605 | 18.89° C | 62% | 1001.2 hPa | 0 mm | - | 328 W/m² | - |
| 1777992304 | 18.89° C | 62% | 1001.1 hPa | 0 mm | - | 317 W/m² | - |
| 1777992005 | 18.33° C | 63% | 1000.8 hPa | 0 mm | - | 307 W/m² | - |
| 1777991705 | 18.33° C | 64% | 1000.8 hPa | 0 mm | - | 279 W/m² | - |
| 1777991405 | 18.33° C | 65% | 1000.7 hPa | 0 mm | - | 252 W/m² | - |
| 1777991105 | 18.33° C | 64% | 1000.7 hPa | 0 mm | - | 235 W/m² | - |
| 1777990805 | 18.33° C | 66% | 1000.8 hPa | 0 mm | - | 225 W/m² | - |
| 1777990504 | 17.78° C | 65% | 1000.9 hPa | 0 mm | - | 218 W/m² | - |
| 1777989905 | 17.78° C | 66% | 1000.6 hPa | 0 mm | - | 200 W/m² | - |
| 1777989604 | 17.78° C | 66% | 1000.7 hPa | 0 mm | - | 205 W/m² | - |
| 1777989304 | 17.78° C | 65% | 1000.6 hPa | 0 mm | - | 259 W/m² | - |
| 1777989004 | 17.22° C | 67% | 1000.8 hPa | 0 mm | - | 294 W/m² | - |
| 1777988705 | 16.67° C | 69% | 1000.8 hPa | 0 mm | - | 218 W/m² | - |
| 1777988404 | 16.67° C | 69% | 1000.6 hPa | 0 mm | - | 160 W/m² | - |
| 1777988104 | 16.67° C | 70% | 1000.7 hPa | 0 mm | - | 145 W/m² | - |
* Rain latest hour (hover to see other rain measurements)
** Current wind speed in m/s (hover to see current wind gust speed)